Year,Month,Day,Hour,Minute,Value (Times are PST for temperature in C)
2016,08,24,00,00,21.30
2016,08,24,00,01,21.30
2016,08,24,00,02,21.20
2016,08,24,00,03,21.20
2016,08,24,00,04,21.20
2016,08,24,00,05,21.20
2016,08,24,00,06,21.10
2016,08,24,00,07,21.10
2016,08,24,00,08,21.10
2016,08,24,00,09,21.00
2016,08,24,00,10,21.00
2016,08,24,00,11,20.90
2016,08,24,00,12,20.90
2016,08,24,00,13,20.80
2016,08,24,00,14,20.80
2016,08,24,00,15,20.80
2016,08,24,00,16,20.70
2016,08,24,00,17,20.70
2016,08,24,00,18,20.70
2016,08,24,00,19,20.60
2016,08,24,00,20,20.60
2016,08,24,00,21,20.60
2016,08,24,00,22,20.60
2016,08,24,00,23,20.60
2016,08,24,00,24,20.60
2016,08,24,00,25,20.60
2016,08,24,00,26,20.50
2016,08,24,00,27,20.50
2016,08,24,00,28,20.50
2016,08,24,00,29,20.40
2016,08,24,00,30,20.40
2016,08,24,00,31,20.40
2016,08,24,00,32,20.40
2016,08,24,00,33,20.40
2016,08,24,00,34,20.40
2016,08,24,00,35,20.40
2016,08,24,00,36,20.30
2016,08,24,00,37,20.30
2016,08,24,00,38,20.30
2016,08,24,00,39,20.30
2016,08,24,00,40,20.30
2016,08,24,00,41,20.30
2016,08,24,00,42,20.30
2016,08,24,00,43,20.20
2016,08,24,00,44,20.20
2016,08,24,00,45,20.20
2016,08,24,00,46,20.20
2016,08,24,00,47,20.20
2016,08,24,00,48,20.10
2016,08,24,00,49,20.10
2016,08,24,00,50,20.10
2016,08,24,00,51,20.10
2016,08,24,00,52,20.10
2016,08,24,00,53,20.10
2016,08,24,00,54,20.10
2016,08,24,00,55,20.00
2016,08,24,00,56,20.00
2016,08,24,00,57,20.00
2016,08,24,00,58,20.00
2016,08,24,00,59,19.90
2016,08,24,01,00,19.90
2016,08,24,01,01,19.90
2016,08,24,01,02,19.90
2016,08,24,01,03,19.90
2016,08,24,01,04,19.80
2016,08,24,01,05,19.80
2016,08,24,01,06,19.80
2016,08,24,01,07,19.80
2016,08,24,01,08,19.80
2016,08,24,01,09,19.70
2016,08,24,01,10,19.70
2016,08,24,01,11,19.70
2016,08,24,01,12,19.70
2016,08,24,01,13,19.70
2016,08,24,01,14,19.70
2016,08,24,01,15,19.60
2016,08,24,01,16,19.60
2016,08,24,01,17,19.60
2016,08,24,01,18,19.60
2016,08,24,01,19,19.60
2016,08,24,01,20,19.60
2016,08,24,01,21,19.60
2016,08,24,01,22,19.50
2016,08,24,01,23,19.50
2016,08,24,01,24,19.50
2016,08,24,01,25,19.40
2016,08,24,01,26,19.40
2016,08,24,01,27,19.40
2016,08,24,01,28,19.40
2016,08,24,01,29,19.40
2016,08,24,01,30,19.40
2016,08,24,01,31,19.30
2016,08,24,01,32,19.30
2016,08,24,01,33,19.30
2016,08,24,01,34,19.30
2016,08,24,01,35,19.30
2016,08,24,01,36,19.30
2016,08,24,01,37,19.30
2016,08,24,01,38,19.30
2016,08,24,01,39,19.30
2016,08,24,01,40,19.30
2016,08,24,01,41,19.30
2016,08,24,01,42,19.30
2016,08,24,01,43,19.30
2016,08,24,01,44,19.30
2016,08,24,01,45,19.30
2016,08,24,01,46,19.30
2016,08,24,01,47,19.30
2016,08,24,01,48,19.30
2016,08,24,01,49,19.30
2016,08,24,01,50,19.30
2016,08,24,01,51,19.20
2016,08,24,01,52,19.20
2016,08,24,01,53,19.20
2016,08,24,01,54,19.20
2016,08,24,01,55,19.20
2016,08,24,01,56,19.20
2016,08,24,01,57,19.20
2016,08,24,01,58,19.20
2016,08,24,01,59,19.10
2016,08,24,02,00,19.10
2016,08,24,02,01,19.10
2016,08,24,02,02,19.10
2016,08,24,02,03,19.10
2016,08,24,02,04,19.10
2016,08,24,02,05,19.10
2016,08,24,02,06,19.00
2016,08,24,02,07,19.00
2016,08,24,02,08,19.00
2016,08,24,02,09,19.00
2016,08,24,02,10,18.90
2016,08,24,02,11,18.90
2016,08,24,02,12,18.90
2016,08,24,02,13,18.90
2016,08,24,02,14,18.90
2016,08,24,02,15,18.90
2016,08,24,02,16,18.90
2016,08,24,02,17,18.90
2016,08,24,02,18,18.90
2016,08,24,02,19,18.80
2016,08,24,02,20,18.80
2016,08,24,02,21,18.80
2016,08,24,02,22,18.80
2016,08,24,02,23,18.90
2016,08,24,02,24,18.90
2016,08,24,02,25,18.90
2016,08,24,02,26,18.90
2016,08,24,02,27,18.90
2016,08,24,02,28,19.00
2016,08,24,02,29,19.00
2016,08,24,02,30,19.00
2016,08,24,02,31,19.00
2016,08,24,02,32,19.10
2016,08,24,02,33,19.10
2016,08,24,02,34,19.10
2016,08,24,02,35,19.00
2016,08,24,02,36,19.00
2016,08,24,02,37,19.00
2016,08,24,02,38,19.00
2016,08,24,02,39,19.00
2016,08,24,02,40,19.00
2016,08,24,02,41,19.00
2016,08,24,02,42,19.00
2016,08,24,02,43,19.00
2016,08,24,02,44,19.00
2016,08,24,02,45,19.00
2016,08,24,02,46,19.00
2016,08,24,02,47,19.00
2016,08,24,02,48,19.00
2016,08,24,02,49,19.00
2016,08,24,02,50,19.00
2016,08,24,02,51,18.90
2016,08,24,02,52,18.90
2016,08,24,02,53,18.90
2016,08,24,02,54,18.90
2016,08,24,02,55,18.90
2016,08,24,02,56,18.90
2016,08,24,02,57,18.90
2016,08,24,02,58,18.90
2016,08,24,02,59,18.90
2016,08,24,03,00,18.90
2016,08,24,03,01,18.80
2016,08,24,03,02,18.80
2016,08,24,03,03,18.80
2016,08,24,03,04,18.80
2016,08,24,03,05,18.80
2016,08,24,03,06,18.80
2016,08,24,03,07,18.80
2016,08,24,03,08,18.70
2016,08,24,03,09,18.70
2016,08,24,03,10,18.70
2016,08,24,03,11,18.70
2016,08,24,03,12,18.70
2016,08,24,03,13,18.70
2016,08,24,03,14,18.70
2016,08,24,03,15,18.70
2016,08,24,03,16,18.70
2016,08,24,03,17,18.70
2016,08,24,03,18,18.70
2016,08,24,03,19,18.70
2016,08,24,03,20,18.70
2016,08,24,03,21,18.70
2016,08,24,03,22,18.70
2016,08,24,03,23,18.70
2016,08,24,03,24,18.70
2016,08,24,03,25,18.70
2016,08,24,03,26,18.70
2016,08,24,03,27,18.70
2016,08,24,03,28,18.70
2016,08,24,03,29,18.70
2016,08,24,03,30,18.80
2016,08,24,03,31,18.80
2016,08,24,03,32,18.80
2016,08,24,03,33,18.80
2016,08,24,03,34,18.80
2016,08,24,03,35,18.80
2016,08,24,03,36,18.80
2016,08,24,03,37,18.80
2016,08,24,03,38,18.70
2016,08,24,03,39,18.70
2016,08,24,03,40,18.70
2016,08,24,03,41,18.70
2016,08,24,03,42,18.70
2016,08,24,03,43,18.70
2016,08,24,03,44,18.70
2016,08,24,03,45,18.60
2016,08,24,03,46,18.60
2016,08,24,03,47,18.60
2016,08,24,03,48,18.60
2016,08,24,03,49,18.60
2016,08,24,03,50,18.60
2016,08,24,03,51,18.60
2016,08,24,03,52,18.60
2016,08,24,03,53,18.50
2016,08,24,03,54,18.50
2016,08,24,03,55,18.50
2016,08,24,03,56,18.50
2016,08,24,03,57,18.40
2016,08,24,03,58,18.40
2016,08,24,03,59,18.40
2016,08,24,04,00,18.40
2016,08,24,04,01,18.40
2016,08,24,04,02,18.40
2016,08,24,04,03,18.40
2016,08,24,04,04,18.40
2016,08,24,04,05,18.40
2016,08,24,04,06,18.40
2016,08,24,04,07,18.40
2016,08,24,04,08,18.40
2016,08,24,04,09,18.40
2016,08,24,04,10,18.40
2016,08,24,04,11,18.40
2016,08,24,04,12,18.40
2016,08,24,04,13,18.40
2016,08,24,04,14,18.40
2016,08,24,04,15,18.40
2016,08,24,04,16,18.40
2016,08,24,04,17,18.30
2016,08,24,04,18,18.30
2016,08,24,04,19,18.30
2016,08,24,04,20,18.30
2016,08,24,04,21,18.30
2016,08,24,04,22,18.30
2016,08,24,04,23,18.30
2016,08,24,04,24,18.30
2016,08,24,04,25,18.30
2016,08,24,04,26,18.30
2016,08,24,04,27,18.30
2016,08,24,04,28,18.30
2016,08,24,04,29,18.30
2016,08,24,04,30,18.30
2016,08,24,04,31,18.30
2016,08,24,04,32,18.30
2016,08,24,04,33,18.30
2016,08,24,04,34,18.30
2016,08,24,04,35,18.30
2016,08,24,04,36,18.30
2016,08,24,04,37,18.30
2016,08,24,04,38,18.30
2016,08,24,04,39,18.30
2016,08,24,04,40,18.30
2016,08,24,04,41,18.30
2016,08,24,04,42,18.30
2016,08,24,04,43,18.30
2016,08,24,04,44,18.30
2016,08,24,04,45,18.30
2016,08,24,04,46,18.30
2016,08,24,04,47,18.30
2016,08,24,04,48,18.30
2016,08,24,04,49,18.40
2016,08,24,04,50,18.40
2016,08,24,04,51,18.40
2016,08,24,04,52,18.40
2016,08,24,04,53,18.40
2016,08,24,04,54,18.40
2016,08,24,04,55,18.30
2016,08,24,04,56,18.30
2016,08,24,04,57,18.30
2016,08,24,04,58,18.30
2016,08,24,04,59,18.30
2016,08,24,05,00,18.30
2016,08,24,05,01,18.30
2016,08,24,05,02,18.30
2016,08,24,05,03,18.20
2016,08,24,05,04,18.20
2016,08,24,05,05,18.20
2016,08,24,05,06,18.20
2016,08,24,05,07,18.20
2016,08,24,05,08,18.20
2016,08,24,05,09,18.20
2016,08,24,05,10,18.10
2016,08,24,05,11,18.10
2016,08,24,05,12,18.10
2016,08,24,05,13,18.10
2016,08,24,05,14,18.10
2016,08,24,05,15,18.10
2016,08,24,05,16,18.10
2016,08,24,05,17,18.10
2016,08,24,05,18,18.10
2016,08,24,05,19,18.10
2016,08,24,05,20,18.10
2016,08,24,05,21,18.10
2016,08,24,05,22,18.10
2016,08,24,05,23,18.00
2016,08,24,05,24,18.00
2016,08,24,05,25,18.00
2016,08,24,05,26,17.90
2016,08,24,05,27,17.90
2016,08,24,05,28,17.90
2016,08,24,05,29,17.90
2016,08,24,05,30,17.90
2016,08,24,05,31,17.80
2016,08,24,05,32,17.80
2016,08,24,05,33,17.80
2016,08,24,05,34,17.80
2016,08,24,05,35,17.80
2016,08,24,05,36,17.80
2016,08,24,05,37,17.80
2016,08,24,05,38,17.80
2016,08,24,05,39,17.80
2016,08,24,05,40,17.80
2016,08,24,05,41,17.80
2016,08,24,05,42,17.80
2016,08,24,05,43,17.80
2016,08,24,05,44,17.80
2016,08,24,05,45,17.80
2016,08,24,05,46,17.80
2016,08,24,05,47,17.80
2016,08,24,05,48,17.80
2016,08,24,05,49,17.80
2016,08,24,05,50,17.90
2016,08,24,05,51,17.90
2016,08,24,05,52,17.90
2016,08,24,05,53,17.90
2016,08,24,05,54,17.90
2016,08,24,05,55,17.90
2016,08,24,05,56,17.80
2016,08,24,05,57,17.80
2016,08,24,05,58,17.80
2016,08,24,05,59,17.80
2016,08,24,06,00,17.80
2016,08,24,06,01,17.80
2016,08,24,06,02,17.80
2016,08,24,06,03,17.80
2016,08,24,06,04,17.80
2016,08,24,06,05,17.80
2016,08,24,06,06,17.80
2016,08,24,06,07,17.80
2016,08,24,06,08,17.80
2016,08,24,06,09,17.80
2016,08,24,06,10,17.80
2016,08,24,06,11,17.80
2016,08,24,06,12,17.80
2016,08,24,06,13,17.80
2016,08,24,06,14,17.80
2016,08,24,06,15,17.80
2016,08,24,06,16,17.80
2016,08,24,06,17,17.80
2016,08,24,06,18,17.80
2016,08,24,06,19,17.80
2016,08,24,06,20,17.70
2016,08,24,06,21,17.70
2016,08,24,06,22,17.70
2016,08,24,06,23,17.70
2016,08,24,06,24,17.70
2016,08,24,06,25,17.70
2016,08,24,06,26,17.70
2016,08,24,06,27,17.70
2016,08,24,06,28,17.70
2016,08,24,06,29,17.70
2016,08,24,06,30,17.70
2016,08,24,06,31,17.70
2016,08,24,06,32,17.70
2016,08,24,06,33,17.70
2016,08,24,06,34,17.70
2016,08,24,06,35,17.70
2016,08,24,06,36,17.70
2016,08,24,06,37,17.70
2016,08,24,06,38,17.70
2016,08,24,06,39,17.70
2016,08,24,06,40,17.80
2016,08,24,06,41,17.80
2016,08,24,06,42,17.80
2016,08,24,06,43,17.80
2016,08,24,06,44,17.80
2016,08,24,06,45,17.80
2016,08,24,06,46,17.80
2016,08,24,06,47,17.80
2016,08,24,06,48,17.80
2016,08,24,06,49,17.80
2016,08,24,06,50,17.90
2016,08,24,06,51,17.90
2016,08,24,06,52,17.90
2016,08,24,06,53,17.90
2016,08,24,06,54,17.90
2016,08,24,06,55,18.00
2016,08,24,06,56,18.00
2016,08,24,06,57,18.10
2016,08,24,06,58,18.10
2016,08,24,06,59,18.10
2016,08,24,07,00,18.10
2016,08,24,07,01,18.10
2016,08,24,07,02,18.20
2016,08,24,07,03,18.20
2016,08,24,07,04,18.20
2016,08,24,07,05,18.20
2016,08,24,07,06,18.20
2016,08,24,07,07,18.20
2016,08,24,07,08,18.20
2016,08,24,07,09,18.30
2016,08,24,07,10,18.30
2016,08,24,07,11,18.30
2016,08,24,07,12,18.30
2016,08,24,07,13,18.30
2016,08,24,07,14,18.30
2016,08,24,07,15,18.30
2016,08,24,07,16,18.40
2016,08,24,07,17,18.40
2016,08,24,07,18,18.40
2016,08,24,07,19,18.40
2016,08,24,07,20,18.40
2016,08,24,07,21,18.40
2016,08,24,07,22,18.50
2016,08,24,07,23,18.50
2016,08,24,07,24,18.50
2016,08,24,07,25,18.60
2016,08,24,07,26,18.60
2016,08,24,07,27,18.60
2016,08,24,07,28,18.60
2016,08,24,07,29,18.60
2016,08,24,07,30,18.60
2016,08,24,07,31,18.60
2016,08,24,07,32,18.70
2016,08,24,07,33,18.70
2016,08,24,07,34,18.70
2016,08,24,07,35,18.70
2016,08,24,07,36,18.70
2016,08,24,07,37,18.70
2016,08,24,07,38,18.80
2016,08,24,07,39,18.80
2016,08,24,07,40,18.80
2016,08,24,07,41,18.80
2016,08,24,07,42,18.80
2016,08,24,07,43,18.90
2016,08,24,07,44,18.90
2016,08,24,07,45,19.00
2016,08,24,07,46,19.00
2016,08,24,07,47,19.10
2016,08,24,07,48,19.10
2016,08,24,07,49,19.10
2016,08,24,07,50,19.10
2016,08,24,07,51,19.20
2016,08,24,07,52,19.20
2016,08,24,07,53,19.20
2016,08,24,07,54,19.30
2016,08,24,07,55,19.30
2016,08,24,07,56,19.30
2016,08,24,07,57,19.40
2016,08,24,07,58,19.40
2016,08,24,07,59,19.40
2016,08,24,08,00,19.50
2016,08,24,08,01,19.50
2016,08,24,08,02,19.60
2016,08,24,08,03,19.60
2016,08,24,08,04,19.60
2016,08,24,08,05,19.60
2016,08,24,08,06,19.60
2016,08,24,08,07,19.70
2016,08,24,08,08,19.70
2016,08,24,08,09,19.70
2016,08,24,08,10,19.70
2016,08,24,08,11,19.70
2016,08,24,08,12,19.70
2016,08,24,08,13,19.70
2016,08,24,08,14,19.80
2016,08,24,08,15,19.70
2016,08,24,08,16,19.70
2016,08,24,08,17,19.70
2016,08,24,08,18,19.60
2016,08,24,08,19,19.60
2016,08,24,08,20,19.60
2016,08,24,08,21,19.60
2016,08,24,08,22,19.60
2016,08,24,08,23,19.60
2016,08,24,08,24,19.60
2016,08,24,08,25,19.50
2016,08,24,08,26,19.50
2016,08,24,08,27,19.50
2016,08,24,08,28,19.50
2016,08,24,08,29,19.50
2016,08,24,08,30,19.50
2016,08,24,08,31,19.50
2016,08,24,08,32,19.50
2016,08,24,08,33,19.50
2016,08,24,08,34,19.50
2016,08,24,08,35,19.50
2016,08,24,08,36,19.50
2016,08,24,08,37,19.40
2016,08,24,08,38,19.40
2016,08,24,08,39,19.40
2016,08,24,08,40,19.50
2016,08,24,08,41,19.50
2016,08,24,08,42,19.50
2016,08,24,08,43,19.50
2016,08,24,08,44,19.50
2016,08,24,08,45,19.60
2016,08,24,08,46,19.60
2016,08,24,08,47,19.60
2016,08,24,08,48,19.60
2016,08,24,08,49,19.60
2016,08,24,08,50,19.60
2016,08,24,08,51,19.60
2016,08,24,08,52,19.60
2016,08,24,08,53,19.50
2016,08,24,08,54,19.40
2016,08,24,08,55,19.40
2016,08,24,08,56,19.40
2016,08,24,08,57,19.40
2016,08,24,08,58,19.40
2016,08,24,08,59,19.40
2016,08,24,09,00,19.40
2016,08,24,09,01,19.40
2016,08,24,09,02,19.50
2016,08,24,09,03,19.50
2016,08,24,09,04,19.50
2016,08,24,09,05,19.50
2016,08,24,09,06,19.50
2016,08,24,09,07,19.50
2016,08,24,09,08,19.50
2016,08,24,09,09,19.50
2016,08,24,09,10,19.50
2016,08,24,09,11,19.50
2016,08,24,09,12,19.50
2016,08,24,09,13,19.50
2016,08,24,09,14,19.60
2016,08,24,09,15,19.50
2016,08,24,09,16,19.50
2016,08,24,09,17,19.50
2016,08,24,09,18,19.50
2016,08,24,09,19,19.40
2016,08,24,09,20,19.40
2016,08,24,09,21,19.40
2016,08,24,09,22,19.50
2016,08,24,09,23,19.50
2016,08,24,09,24,19.60
2016,08,24,09,25,19.70
2016,08,24,09,26,19.70
2016,08,24,09,27,19.80
2016,08,24,09,28,19.80
2016,08,24,09,29,19.80
2016,08,24,09,30,19.80
2016,08,24,09,31,19.80
2016,08,24,09,32,19.80
2016,08,24,09,33,19.80
2016,08,24,09,34,19.70
2016,08,24,09,35,19.70
2016,08,24,09,36,19.70
2016,08,24,09,37,19.70
2016,08,24,09,38,19.70
2016,08,24,09,39,19.70
2016,08,24,09,40,19.70
2016,08,24,09,41,19.70
2016,08,24,09,42,19.80
2016,08,24,09,43,19.80
2016,08,24,09,44,19.80
2016,08,24,09,45,19.80
2016,08,24,09,46,19.90
2016,08,24,09,47,19.90
2016,08,24,09,48,20.00
2016,08,24,09,49,20.10
2016,08,24,09,50,20.10
2016,08,24,09,51,20.10
2016,08,24,09,52,20.10
2016,08,24,09,53,20.20
2016,08,24,09,54,20.20
2016,08,24,09,55,20.10
2016,08,24,09,56,20.10
2016,08,24,09,57,20.00
2016,08,24,09,58,19.90
2016,08,24,09,59,19.90
2016,08,24,10,00,19.80
2016,08,24,10,01,19.80
2016,08,24,10,02,19.80
2016,08,24,10,03,19.80
2016,08,24,10,04,19.90
2016,08,24,10,05,19.90
2016,08,24,10,06,19.90
2016,08,24,10,07,19.90
2016,08,24,10,08,19.90
2016,08,24,10,09,20.00
2016,08,24,10,10,20.00
2016,08,24,10,11,20.00
2016,08,24,10,12,20.00
2016,08,24,10,13,20.10
2016,08,24,10,14,20.10
2016,08,24,10,15,20.10
2016,08,24,10,16,20.20
2016,08,24,10,17,20.20
2016,08,24,10,18,20.30
2016,08,24,10,19,20.30
2016,08,24,10,20,20.30
2016,08,24,10,21,20.30
2016,08,24,10,22,20.30
2016,08,24,10,23,20.30
2016,08,24,10,24,20.40
2016,08,24,10,25,20.40
2016,08,24,10,26,20.40
2016,08,24,10,27,20.50
2016,08,24,10,28,20.50
2016,08,24,10,29,20.60
2016,08,24,10,30,20.60
2016,08,24,10,31,20.60
2016,08,24,10,32,20.60
2016,08,24,10,33,20.60
2016,08,24,10,34,20.60
2016,08,24,10,35,20.70
2016,08,24,10,36,20.70
2016,08,24,10,37,20.70
2016,08,24,10,38,20.70
2016,08,24,10,39,20.70
2016,08,24,10,40,20.70
2016,08,24,10,41,20.70
2016,08,24,10,42,20.70
2016,08,24,10,43,20.70
2016,08,24,10,44,20.60
2016,08,24,10,45,20.60
2016,08,24,10,46,20.60
2016,08,24,10,47,20.60
2016,08,24,10,48,20.60
2016,08,24,10,49,20.60
2016,08,24,10,50,20.60
2016,08,24,10,51,20.50
2016,08,24,10,52,20.50
2016,08,24,10,53,20.50
2016,08,24,10,54,20.50
2016,08,24,10,55,20.50
2016,08,24,10,56,20.50
2016,08,24,10,57,20.50
2016,08,24,10,58,20.50
2016,08,24,10,59,20.50
2016,08,24,11,00,20.40
2016,08,24,11,01,20.40
2016,08,24,11,02,20.30
2016,08,24,11,03,20.30
2016,08,24,11,04,20.30
2016,08,24,11,05,20.30
2016,08,24,11,06,20.40
2016,08,24,11,07,20.50
2016,08,24,11,08,20.50
2016,08,24,11,09,20.60
2016,08,24,11,10,20.70
2016,08,24,11,11,20.80
2016,08,24,11,12,20.80
2016,08,24,11,13,20.90
2016,08,24,11,14,20.90
2016,08,24,11,15,20.90
2016,08,24,11,16,20.80
2016,08,24,11,17,20.80
2016,08,24,11,18,20.80
2016,08,24,11,19,20.80
2016,08,24,11,20,20.80
2016,08,24,11,21,20.80
2016,08,24,11,22,20.80
2016,08,24,11,23,20.80
2016,08,24,11,24,20.80
2016,08,24,11,25,20.90
2016,08,24,11,26,20.90
2016,08,24,11,27,20.90
2016,08,24,11,28,21.00
2016,08,24,11,29,21.00
2016,08,24,11,30,21.00
2016,08,24,11,31,21.10
2016,08,24,11,32,21.10
2016,08,24,11,33,21.20
2016,08,24,11,34,21.20
2016,08,24,11,35,21.30
2016,08,24,11,36,21.30
2016,08,24,11,37,21.30
2016,08,24,11,38,21.30
2016,08,24,11,39,21.40
2016,08,24,11,40,21.50
2016,08,24,11,41,21.50
2016,08,24,11,42,21.60
2016,08,24,11,43,21.60
2016,08,24,11,44,21.70
2016,08,24,11,45,21.80
2016,08,24,11,46,21.80
2016,08,24,11,47,21.90
2016,08,24,11,48,21.90
2016,08,24,11,49,21.80
2016,08,24,11,50,21.80
2016,08,24,11,51,21.90
2016,08,24,11,52,21.90
2016,08,24,11,53,21.90
2016,08,24,11,54,21.90
2016,08,24,11,55,21.90
2016,08,24,11,56,21.80
2016,08,24,11,57,21.70
2016,08,24,11,58,21.60
2016,08,24,11,59,21.50
2016,08,24,12,00,21.50
2016,08,24,12,01,21.50
2016,08,24,12,02,21.50
2016,08,24,12,03,21.50
2016,08,24,12,04,21.40
2016,08,24,12,05,21.40
2016,08,24,12,06,21.40
2016,08,24,12,07,21.30
2016,08,24,12,08,21.20
2016,08,24,12,09,21.30
2016,08,24,12,10,21.30
2016,08,24,12,11,21.30
2016,08,24,12,12,21.40
2016,08,24,12,13,21.40
2016,08,24,12,14,21.40
2016,08,24,12,15,21.40
2016,08,24,12,16,21.40
2016,08,24,12,17,21.40
2016,08,24,12,18,21.40
2016,08,24,12,19,21.50
2016,08,24,12,20,21.60
2016,08,24,12,21,21.60
2016,08,24,12,22,21.70
2016,08,24,12,23,21.70
2016,08,24,12,24,21.80
2016,08,24,12,25,21.80
2016,08,24,12,26,21.90
2016,08,24,12,27,22.00
2016,08,24,12,28,22.00
2016,08,24,12,29,22.10
2016,08,24,12,30,22.20
2016,08,24,12,31,22.30
2016,08,24,12,32,22.40
2016,08,24,12,33,22.50
2016,08,24,12,34,22.50
2016,08,24,12,35,22.50
2016,08,24,12,36,22.60
2016,08,24,12,37,22.60
2016,08,24,12,38,22.60
2016,08,24,12,39,22.50
2016,08,24,12,40,22.50
2016,08,24,12,41,22.50
2016,08,24,12,42,22.50
2016,08,24,12,43,22.50
2016,08,24,12,44,22.50
2016,08,24,12,45,22.40
2016,08,24,12,46,22.40
2016,08,24,12,47,22.50
2016,08,24,12,48,22.50
2016,08,24,12,49,22.60
2016,08,24,12,50,22.60
2016,08,24,12,51,22.70
2016,08,24,12,52,22.80
2016,08,24,12,53,22.90
2016,08,24,12,54,23.00
2016,08,24,12,55,23.00
2016,08,24,12,56,23.10
2016,08,24,12,57,23.20
2016,08,24,12,58,23.30
2016,08,24,12,59,23.40
2016,08,24,13,00,23.40
2016,08,24,13,01,23.40
2016,08,24,13,02,23.40
2016,08,24,13,03,23.40
2016,08,24,13,04,23.40
2016,08,24,13,05,23.50
2016,08,24,13,06,23.50
2016,08,24,13,07,23.60
2016,08,24,13,08,23.60
2016,08,24,13,09,23.70
2016,08,24,13,10,23.70
2016,08,24,13,11,23.70
2016,08,24,13,12,23.80
2016,08,24,13,13,23.80
2016,08,24,13,14,23.80
2016,08,24,13,15,23.80
2016,08,24,13,16,23.80
2016,08,24,13,17,23.90
2016,08,24,13,18,23.90
2016,08,24,13,19,24.00
2016,08,24,13,20,24.00
2016,08,24,13,21,24.10
2016,08,24,13,22,24.20
2016,08,24,13,23,24.30
2016,08,24,13,24,24.30
2016,08,24,13,25,24.30
2016,08,24,13,26,24.40
2016,08,24,13,27,24.40
2016,08,24,13,28,24.40
2016,08,24,13,29,24.40
2016,08,24,13,30,24.30
2016,08,24,13,31,24.20
2016,08,24,13,32,24.10
2016,08,24,13,33,24.10
2016,08,24,13,34,24.10
2016,08,24,13,35,24.10
2016,08,24,13,36,24.20
2016,08,24,13,37,24.20
2016,08,24,13,38,24.30
2016,08,24,13,39,24.30
2016,08,24,13,40,24.30
2016,08,24,13,41,24.30
2016,08,24,13,42,24.40
2016,08,24,13,43,24.50
2016,08,24,13,44,24.60
2016,08,24,13,45,24.60
2016,08,24,13,46,24.70
2016,08,24,13,47,24.80
2016,08,24,13,48,24.80
2016,08,24,13,49,24.90
2016,08,24,13,50,24.90
2016,08,24,13,51,24.90
2016,08,24,13,52,24.90
2016,08,24,13,53,24.90
2016,08,24,13,54,24.90
2016,08,24,13,55,25.00
2016,08,24,13,56,25.10
2016,08,24,13,57,25.10
2016,08,24,13,58,25.20
2016,08,24,13,59,25.30
2016,08,24,14,00,25.30
2016,08,24,14,01,25.20
2016,08,24,14,02,25.20
2016,08,24,14,03,25.20
2016,08,24,14,04,25.20
2016,08,24,14,05,25.20
2016,08,24,14,06,25.30
2016,08,24,14,07,25.40
2016,08,24,14,08,25.40
2016,08,24,14,09,25.50
2016,08,24,14,10,25.60
2016,08,24,14,11,25.60
2016,08,24,14,12,25.70
2016,08,24,14,13,25.70
2016,08,24,14,14,25.80
2016,08,24,14,15,25.80
2016,08,24,14,16,25.80
2016,08,24,14,17,25.80
2016,08,24,14,18,25.80
2016,08,24,14,19,25.70
2016,08,24,14,20,25.80
2016,08,24,14,21,25.80
2016,08,24,14,22,25.90
2016,08,24,14,23,25.90
2016,08,24,14,24,26.00
2016,08,24,14,25,26.10
2016,08,24,14,26,26.20
2016,08,24,14,27,26.30
2016,08,24,14,28,26.30
2016,08,24,14,29,26.30
2016,08,24,14,30,26.20
2016,08,24,14,31,26.10
2016,08,24,14,32,26.10
2016,08,24,14,33,26.20
2016,08,24,14,34,26.20
2016,08,24,14,35,26.20
2016,08,24,14,36,26.20
2016,08,24,14,37,26.20
2016,08,24,14,38,26.30
2016,08,24,14,39,26.30
2016,08,24,14,40,26.30
2016,08,24,14,41,26.40
2016,08,24,14,42,26.50
2016,08,24,14,43,26.60
2016,08,24,14,44,26.70
2016,08,24,14,45,26.80
2016,08,24,14,46,26.80
2016,08,24,14,47,26.80
2016,08,24,14,48,26.90
2016,08,24,14,49,26.90
2016,08,24,14,50,26.80
2016,08,24,14,51,26.80
2016,08,24,14,52,26.80
2016,08,24,14,53,26.70
2016,08,24,14,54,26.70
2016,08,24,14,55,26.70
2016,08,24,14,56,26.70
2016,08,24,14,57,26.70
2016,08,24,14,58,26.80
2016,08,24,14,59,26.80
2016,08,24,15,00,26.80
2016,08,24,15,01,26.80
2016,08,24,15,02,26.90
2016,08,24,15,03,27.00
2016,08,24,15,04,27.00
2016,08,24,15,05,27.10
2016,08,24,15,06,27.10
2016,08,24,15,07,27.10
2016,08,24,15,08,27.20
2016,08,24,15,09,27.10
2016,08,24,15,10,27.20
2016,08,24,15,11,27.20
2016,08,24,15,12,27.30
2016,08,24,15,13,27.30
2016,08,24,15,14,27.30
2016,08,24,15,15,27.30
2016,08,24,15,16,27.30
2016,08,24,15,17,27.30
2016,08,24,15,18,27.20
2016,08,24,15,19,27.00
2016,08,24,15,20,26.90
2016,08,24,15,21,26.80
2016,08,24,15,22,26.80
2016,08,24,15,23,26.80
2016,08,24,15,24,26.90
2016,08,24,15,25,26.90
2016,08,24,15,26,27.00
2016,08,24,15,27,27.00
2016,08,24,15,28,27.00
2016,08,24,15,29,27.00
2016,08,24,15,30,27.00
2016,08,24,15,31,27.00
2016,08,24,15,32,27.00
2016,08,24,15,33,27.00
2016,08,24,15,34,27.10
2016,08,24,15,35,27.10
2016,08,24,15,36,27.20
2016,08,24,15,37,27.20
2016,08,24,15,38,27.10
2016,08,24,15,39,27.10
2016,08,24,15,40,27.10
2016,08,24,15,41,27.10
2016,08,24,15,42,27.10
2016,08,24,15,43,27.10
2016,08,24,15,44,27.10
2016,08,24,15,45,27.10
2016,08,24,15,46,27.10
2016,08,24,15,47,27.10
2016,08,24,15,48,27.10
2016,08,24,15,49,27.20
2016,08,24,15,50,27.20
2016,08,24,15,51,27.20
2016,08,24,15,52,27.30
2016,08,24,15,53,27.30
2016,08,24,15,54,27.30
2016,08,24,15,55,27.40
2016,08,24,15,56,27.40
2016,08,24,15,57,27.50
2016,08,24,15,58,27.50
2016,08,24,15,59,27.50
2016,08,24,16,00,27.50
2016,08,24,16,01,27.50
2016,08,24,16,02,27.40
2016,08,24,16,03,27.40
2016,08,24,16,04,27.40
2016,08,24,16,05,27.40
2016,08,24,16,06,27.40
2016,08,24,16,07,27.40
2016,08,24,16,08,27.50
2016,08,24,16,09,27.50
2016,08,24,16,10,27.60
2016,08,24,16,11,27.60
2016,08,24,16,12,27.60
2016,08,24,16,13,27.60
2016,08,24,16,14,27.60
2016,08,24,16,15,27.60
2016,08,24,16,16,27.70
2016,08,24,16,17,27.70
2016,08,24,16,18,27.70
2016,08,24,16,19,27.70
2016,08,24,16,20,27.80
2016,08,24,16,21,27.80
2016,08,24,16,22,27.90
2016,08,24,16,23,27.90
2016,08,24,16,24,28.00
2016,08,24,16,25,28.00
2016,08,24,16,26,28.10
2016,08,24,16,27,28.10
2016,08,24,16,28,28.10
2016,08,24,16,29,28.10
2016,08,24,16,30,28.10
2016,08,24,16,31,28.10
2016,08,24,16,32,28.10
2016,08,24,16,33,28.10
2016,08,24,16,34,28.10
2016,08,24,16,35,28.10
2016,08,24,16,36,28.10
2016,08,24,16,37,28.10
2016,08,24,16,38,28.10
2016,08,24,16,39,28.10
2016,08,24,16,40,28.10
2016,08,24,16,41,28.10
2016,08,24,16,42,28.10
2016,08,24,16,43,28.20
2016,08,24,16,44,28.20
2016,08,24,16,45,28.20
2016,08,24,16,46,28.20
2016,08,24,16,47,28.20
2016,08,24,16,48,28.30
2016,08,24,16,49,28.40
2016,08,24,16,50,28.40
2016,08,24,16,51,28.50
2016,08,24,16,52,28.50
2016,08,24,16,53,28.50
2016,08,24,16,54,28.50
2016,08,24,16,55,28.50
2016,08,24,16,56,28.40
2016,08,24,16,57,28.40
2016,08,24,16,58,28.40
2016,08,24,16,59,28.40
2016,08,24,17,00,28.40
2016,08,24,17,01,28.40
2016,08,24,17,02,28.30
2016,08,24,17,03,28.30
2016,08,24,17,04,28.30
2016,08,24,17,05,28.30
2016,08,24,17,06,28.30
2016,08,24,17,07,28.30
2016,08,24,17,08,28.30
2016,08,24,17,09,28.20
2016,08,24,17,10,28.20
2016,08,24,17,11,28.20
2016,08,24,17,12,28.20
2016,08,24,17,13,28.20
2016,08,24,17,14,28.20
2016,08,24,17,15,28.20
2016,08,24,17,16,28.30
2016,08,24,17,17,28.20
2016,08,24,17,18,28.20
2016,08,24,17,19,28.20